N0QV Weather Reports


time (UTC)temp
F
wind
direction
speed
knots
gust
knots
rain 1hr
in
rain 24hr
in
rain mn
in
humidity
%
barometer
mb
20260502194630 67 224 1.7 4.3 0.00 0.00 0.00 28 1015.3
20260502194127 67 301 2.6 4.3 0.00 0.00 0.00 31 1015.6
20260502193623 66 308 2.6 7.0 0.00 0.00 0.00 30 1015.6
20260502193120 66 283 2.6 4.3 0.00 0.00 0.00 27 1015.8
20260502192615 66 252 1.7 2.6 0.00 0.00 0.00 29 1015.7
20260502192113 66 279 0.9 7.8 0.00 0.00 0.00 28 1015.9
20260502191610 66 248 0.9 1.7 0.00 0.00 0.00 28 1015.9
20260502191108 66 182 2.6 4.3 0.00 0.00 0.00 30 1016.1
20260502190605 66 142 0.9 5.2 0.00 0.00 0.00 27 1016.4
20260502185556 65 299 3.5 5.2 0.00 0.00 0.00 30 1016.3
20260502185054 65 275 3.5 4.3 0.00 0.00 0.00 29 1016.2
20260502184549 64 245 1.7 4.3 0.00 0.00 0.00 29 1016.4
20260502184045 64 260 3.5 4.3 0.00 0.00 0.00 31 1016.6
20260502183542 64 208 1.7 2.6 0.00 0.00 0.00 32 1016.5
20260502183038 64 321 0.9 1.7 0.00 0.00 0.00 29 1016.6
20260502182533 64 216 0.9 2.6 0.00 0.00 0.00 30 1016.9
20260502182030 64 305 0.9 4.3 0.00 0.00 0.00 32 1017.1
20260502181528 63 260 4.3 7.8 0.00 0.00 0.00 31 1017.1
20260502181027 63 255 3.5 4.3 0.00 0.00 0.00 35 1017.3
20260502180523 63 301 2.6 5.2 0.00 0.00 0.00 30 1017.2
20260502170448 60 230 1.7 4.3 0.00 0.00 0.00 32 1018.2
20260502163931 61 247 0.9 2.6 0.00 0.00 0.00 33 1018.4
20260502163427 60 243 0.0 4.3 0.00 0.00 0.00 32 1018.6
20260502162925 60 264 4.3 5.2 0.00 0.00 0.00 31 1018.8
20260502162422 60 232 2.6 4.3 0.00 0.00 0.00 33 1018.7
20260502161919 59 247 0.9 1.7 0.00 0.00 0.00 31 1018.7
20260502161415 59 291 2.6 2.6 0.00 0.00 0.00 33 1018.8
20260502160913 59 297 4.3 6.1 0.00 0.00 0.00 32 1018.9
20260502160411 59 254 2.6 7.0 0.00 0.00 0.00 32 1018.7
20260502151843 57 243 0.9 4.3 0.00 0.00 0.00 36 1019.4
20260502151339 56 274 4.3 6.1 0.00 0.00 0.00 35 1019.3
20260502150837 56 264 7.0 8.7 0.00 0.00 0.00 35 1019.2
20260502150333 56 234 1.7 4.3 0.00 0.00 0.00 36 1019.4
20260502130721 46 257 1.7 2.6 0.00 0.00 0.00 56 1020.0
20260502130219 46 260 0.9 0.9 0.00 0.00 0.00 58 1020.3
20260502123705 44 240 0.0 0.9 0.00 0.00 0.00 62 1019.7
20260502123202 43 245 0.0 0.9 0.00 0.00 0.00 61 1020.0
20260502122658 44 285 0.0 0.0 0.00 0.00 0.00 61 1020.1
20260502122155 43 285 0.0 0.0 0.00 0.00 0.00 66 1019.9
20260502121653 41 285 0.0 0.0 0.00 0.00 0.00 69 1019.9
20260502121151 40 285 0.0 0.0 0.00 0.00 0.00 69 1020.1
20260502120647 39 285 0.0 0.0 0.00 0.00 0.00 69 1020.0
20260502120144 39 285 0.0 0.0 0.00 0.00 0.00 71 1020.0
20260502115641 37 285 0.0 0.0 0.00 0.00 0.00 75 1019.9
20260502115137 35 285 0.0 0.0 0.00 0.00 0.00 84 1020.0
20260502114633 34 285 0.0 0.0 0.00 0.00 0.00 86 1020.0
20260502114131 32 285 0.0 0.0 0.00 0.00 0.00 87 1020.0
20260502113628 31 285 0.0 0.0 0.00 0.00 0.00 87 1019.8
20260502113127 31 285 0.0 0.0 0.00 0.00 0.00 87 1019.9
20260502112624 30 285 0.0 0.0 0.00 0.00 0.00 87 1019.9
20260502112121 30 285 0.0 0.0 0.00 0.00 0.00 87 1019.8
20260502111619 30 285 0.0 0.0 0.00 0.00 0.00 87 1019.6
20260502111116 30 285 0.0 0.0 0.00 0.00 0.00 87 1019.5
20260502110614 30 285 0.0 0.0 0.00 0.00 0.00 86 1019.7
20260502110111 30 285 0.0 0.0 0.00 0.00 0.00 86 1020.0
20260502105608 31 285 0.0 0.0 0.00 0.00 0.00 86 1019.8
20260502105105 31 285 0.0 0.0 0.00 0.00 0.00 86 1019.6
20260502104602 31 285 0.0 0.0 0.00 0.00 0.00 86 1019.9
20260502104100 30 285 0.0 0.0 0.00 0.00 0.00 85 1019.5
20260502103557 30 285 0.0 0.0 0.00 0.00 0.00 84 1020.0
20260502103055 30 285 0.0 0.0 0.00 0.00 0.00 84 1019.8
20260502102551 30 285 0.0 0.0 0.00 0.00 0.00 84 1020.0
20260502102048 31 285 0.0 0.0 0.00 0.00 0.00 83 1019.9
20260502101547 31 285 0.0 0.0 0.00 0.00 0.00 82 1019.9
20260502101044 32 285 0.0 0.0 0.00 0.00 0.00 82 1019.9
20260502100543 32 285 0.0 0.0 0.00 0.00 0.00 82 1019.8
20260502091517 32 285 0.0 0.0 0.00 0.00 0.00 79 1019.6
20260502091015 32 285 0.0 0.0 0.00 0.00 0.00 78 1019.7
20260502090511 32 285 0.0 0.0 0.00 0.00 0.00 79 1019.6
20260502071406 33 254 0.0 0.0 0.00 0.00 0.00 82 1019.7
20260502070904 33 254 0.0 0.0 0.00 0.00 0.00 82 1019.8
20260502070402 33 254 0.0 0.0 0.00 0.00 0.00 81 1019.6
20260502065900 33 254 0.0 0.0 0.00 0.00 0.00 81 1019.8
20260502065358 33 254 0.0 0.0 0.00 0.00 0.00 82 1019.6
20260502064856 33 254 0.0 0.0 0.00 0.00 0.00 82 1019.8
20260502064354 33 254 0.0 0.0 0.00 0.00 0.00 81 1020.1
20260502063850 33 254 0.0 0.0 0.00 0.00 0.00 81 1019.8
20260502063348 33 254 0.0 0.0 0.00 0.00 0.00 82 1020.0
20260502062845 33 254 0.0 0.0 0.00 0.00 0.00 81 1019.9
20260502062343 33 254 0.0 0.0 0.00 0.00 0.00 80 1019.9
20260502061842 33 254 0.0 0.0 0.00 0.00 0.00 77 1020.3
20260502061339 34 254 0.0 0.0 0.00 0.00 0.00 78 1020.0
20260502060835 34 254 0.0 0.0 0.00 0.00 0.00 78 1020.1
20260502060330 34 254 0.0 0.0 0.00 0.00 0.00 77 1020.3
20260502055828 34 254 0.0 0.0 0.00 0.00 0.00 75 1020.1
20260502055326 35 254 0.0 0.0 0.00 0.00 0.00 73 1020.3
20260502054825 35 254 0.0 0.0 0.00 0.00 0.00 72 1020.1
20260502054322 35 254 0.0 0.0 0.00 0.00 0.00 73 1020.3
20260502053819 35 254 0.0 0.0 0.00 0.00 0.00 72 1020.1
20260502053316 35 254 0.0 0.0 0.00 0.00 0.00 74 1020.1
20260502052814 35 254 0.0 0.0 0.00 0.00 0.00 77 1020.1
20260502052312 35 254 0.0 0.0 0.00 0.00 0.00 73 1019.9
20260502051809 35 254 0.0 0.0 0.00 0.00 0.00 73 1019.8
20260502051308 36 254 0.0 0.0 0.00 0.00 0.00 70 1019.9
20260502050804 36 254 0.0 0.0 0.00 0.00 0.00 65 1019.9
20260502050300 37 254 0.0 0.0 0.00 0.00 0.00 66 1019.8
20260502045757 37 254 0.0 0.0 0.00 0.00 0.00 67 1019.9
20260502045254 37 254 0.0 0.0 0.00 0.00 0.00 66 1019.9
20260502044751 37 254 0.0 0.0 0.00 0.00 0.00 66 1019.9
20260502044247 37 254 0.0 0.0 0.00 0.00 0.00 64 1019.8
20260502043745 37 254 0.0 0.0 0.00 0.00 0.00 67 1019.9
20260502043242 37 254 0.0 0.0 0.00 0.00 0.00 66 1019.9
20260502042741 38 254 0.0 0.0 0.00 0.00 0.00 67 1019.6
20260502042239 38 254 0.0 0.0 0.00 0.00 0.00 65 1019.8
20260502041737 38 254 0.0 0.0 0.00 0.00 0.00 64 1019.9
20260502041234 39 254 0.0 0.0 0.00 0.00 0.00 63 1019.8
20260502040731 39 254 0.0 0.0 0.00 0.00 0.00 65 1020.0
20260502040227 39 254 0.0 0.0 0.00 0.00 0.00 63 1019.9
20260502035723 39 254 0.0 0.0 0.00 0.00 0.00 61 1019.7
20260502035221 39 254 0.0 0.0 0.00 0.00 0.00 61 1020.1
20260502034718 40 254 0.0 0.0 0.00 0.00 0.00 60 1019.8
20260502034216 40 254 0.0 0.0 0.00 0.00 0.00 62 1020.1
20260502033714 40 254 0.0 0.0 0.00 0.00 0.00 62 1019.9
20260502033211 40 254 0.0 0.0 0.00 0.00 0.00 61 1019.9
20260502032708 40 254 0.0 0.0 0.00 0.00 0.00 63 1020.3
20260502032203 40 254 0.0 0.0 0.00 0.00 0.00 60 1020.1
20260502031702 40 254 0.0 0.0 0.00 0.00 0.00 60 1019.9
20260502031159 41 254 0.0 0.0 0.00 0.00 0.00 61 1020.0
20260502030658 41 254 0.0 0.0 0.00 0.00 0.00 58 1019.9
20260502030156 41 254 0.0 0.9 0.00 0.00 0.00 57 1019.9
20260502025652 42 254 0.0 0.9 0.00 0.00 0.00 57 1020.0
20260502025150 42 254 0.0 0.0 0.00 0.00 0.00 55 1019.8
20260502024648 43 254 0.0 0.9 0.00 0.00 0.00 53 1019.8
20260502024146 43 254 0.9 0.9 0.00 0.00 0.00 53 1019.9
20260502023644 43 254 0.9 0.9 0.00 0.00 0.00 53 1019.8
20260502023141 43 254 0.0 0.0 0.00 0.00 0.00 49 1019.9
20260502022638 44 254 0.0 0.0 0.00 0.00 0.00 49 1019.7
20260502022135 44 254 0.9 0.9 0.00 0.00 0.00 47 1019.6
20260502021632 44 254 0.0 0.9 0.00 0.00 0.00 47 1019.7
20260502021129 45 254 0.0 0.0 0.00 0.00 0.00 46 1019.7
20260502020626 45 254 0.0 0.0 0.00 0.00 0.00 45 1019.7
20260502020123 46 254 0.0 0.0 0.00 0.00 0.00 44 1019.6
20260502015621 46 254 0.0 0.9 0.00 0.00 0.00 44 1019.5
20260502015117 46 254 0.0 0.9 0.00 0.00 0.00 43 1019.4
20260502014614 47 254 0.0 0.0 0.00 0.00 0.00 42 1019.4
20260502014111 48 254 0.0 0.9 0.00 0.00 0.00 41 1019.6
20260502013607 48 254 0.0 0.0 0.00 0.00 0.00 39 1019.5
20260502013103 49 254 0.0 0.0 0.00 0.00 0.00 38 1019.3
20260502012601 49 254 0.0 0.9 0.00 0.00 0.00 37 1019.4
20260502012059 50 310 0.0 0.0 0.00 0.00 0.00 38 1019.5
20260502011555 50 310 0.0 0.9 0.00 0.00 0.00 36 1019.4
20260502011051 51 282 0.0 1.7 0.00 0.00 0.00 34 1019.2
20260502010549 51 285 1.7 1.7 0.00 0.00 0.00 34 1019.5
20260502010045 51 262 1.7 1.7 0.00 0.00 0.00 34 1019.2
20260502005543 51 315 1.7 1.7 0.00 0.00 0.00 34 1019.4
20260502005040 51 296 0.9 2.6 0.00 0.00 0.00 33 1019.3
20260502004536 51 237 0.9 1.7 0.00 0.00 0.00 35 1019.3
20260502004033 52 283 1.7 2.6 0.00 0.00 0.00 33 1019.2
20260502003531 52 320 2.6 4.3 0.00 0.00 0.00 33 1019.1
20260502003027 53 269 2.6 4.3 0.00 0.00 0.00 33 1018.9
20260502002524 53 264 1.7 4.3 0.00 0.00 0.00 32 1019.0
20260502002021 53 263 2.6 4.3 0.00 0.00 0.00 32 1019.1
20260502001519 53 270 2.6 4.3 0.00 0.00 0.00 32 1019.1
20260502001016 53 244 3.5 4.3 0.00 0.00 0.00 31 1019.2
20260502000514 54 299 0.9 4.3 0.00 0.00 0.00 32 1018.9
20260502000011 54 304 1.7 2.6 0.00 0.00 0.00 31 1018.8
20260501235507 54 281 1.7 4.3 0.00 0.00 0.00 31 1018.9
20260501235001 54 56 0.9 1.7 0.00 0.00 0.00 32 1018.9
20260501234458 55 258 1.7 2.6 0.00 0.00 0.00 32 1018.8
20260501233957 55 315 3.5 6.1 0.00 0.00 0.00 30 1018.7
20260501233454 55 226 0.0 2.6 0.00 0.00 0.00 31 1019.0
20260501232950 56 220 0.9 0.9 0.00 0.00 0.00 32 1018.8
20260501232447 54 277 0.9 2.6 0.00 0.00 0.00 34 1018.9
20260501231944 54 257 1.7 4.3 0.00 0.00 0.00 32 1018.8
20260501231443 54 120 0.9 2.6 0.00 0.00 0.00 32 1018.9
20260501230940 54 306 1.7 2.6 0.00 0.00 0.00 33 1018.8
20260501230439 55 74 0.9 1.7 0.00 0.00 0.00 32 1019.0
20260501225936 55 254 0.9 2.6 0.00 0.00 0.00 32 1018.9
20260501225434 55 241 2.6 6.1 0.00 0.00 0.00 33 1018.9
20260501224929 55 287 3.5 4.3 0.00 0.00 0.00 32 1018.8
20260501224427 56 137 0.9 5.2 0.00 0.00 0.00 31 1018.8
20260501223924 55 279 0.9 1.7 0.00 0.00 0.00 31 1018.6
20260501223420 54 321 1.7 4.3 0.00 0.00 0.00 31 1018.9
20260501222916 52 260 1.7 2.6 0.00 0.00 0.00 33 1019.0
20260501222414 52 314 2.6 4.3 0.00 0.00 0.00 35 1018.9
20260501221909 54 261 1.7 4.3 0.00 0.00 0.00 34 1019.0
20260501221407 53 289 0.9 2.6 0.00 0.00 0.00 34 1019.1
20260501220905 54 118 1.7 4.3 0.00 0.00 0.00 35 1018.9
20260501220402 53 253 1.7 1.7 0.00 0.00 0.00 33 1018.7
20260501215858 53 256 0.9 2.6 0.00 0.00 0.00 36 1018.7
20260501215354 53 276 0.9 1.7 0.00 0.00 0.00 35 1018.8
20260501214850 53 319 0.9 2.6 0.00 0.00 0.00 33 1018.8
20260501214345 52 308 2.6 4.3 0.00 0.00 0.00 35 1018.8
20260501213841 53 271 2.6 5.2 0.00 0.00 0.00 34 1018.7
20260501213338 54 246 1.7 1.7 0.00 0.00 0.00 34 1018.7
20260501212834 55 326 1.7 2.6 0.00 0.00 0.00 33 1019.0
20260501212331 53 155 2.6 4.3 0.00 0.00 0.00 34 1018.9
20260501211828 52 294 2.6 6.1 0.00 0.00 0.00 35 1019.0
20260501211326 53 249 2.6 6.1 0.00 0.00 0.00 33 1018.7
20260501210823 55 267 2.6 4.3 0.00 0.00 0.00 33 1018.7
20260501210320 54 270 2.6 4.3 0.00 0.00 0.00 34 1018.9
20260501205816 55 288 3.5 4.3 0.00 0.00 0.00 33 1018.8
20260501205313 53 5 0.9 6.1 0.00 0.00 0.00 35 1019.1
20260501204809 53 22 1.7 5.2 0.00 0.00 0.00 35 1019.2
20260501204306 53 299 2.6 2.6 0.00 0.00 0.00 33 1018.8
20260501203802 53 213 0.9 2.6 0.00 0.00 0.00 35 1019.1
20260501203300 55 316 6.1 6.1 0.00 0.00 0.00 33 1019.2
20260501202757 54 236 0.9 1.7 0.00 0.00 0.00 37 1019.3
20260501202253 53 223 0.9 2.6 0.00 0.00 0.00 34 1019.3
20260501201750 53 239 1.7 7.8 0.00 0.00 0.00 33 1019.2
20260501201247 55 283 3.5 5.2 0.00 0.00 0.00 35 1019.1
20260501200744 56 249 0.9 4.3 0.00 0.00 0.00 32 1019.0
20260501200241 56 245 0.0 2.6 0.00 0.00 0.00 35 1019.2
20260501195738 54 236 0.9 6.1 0.00 0.00 0.00 34 1019.1
20260501195234 54 269 0.9 1.7 0.00 0.00 0.00 34 1019.1
20260501194730 55 49 2.6 4.3 0.00 0.00 0.00 33 1019.1